M I D A S
Marine Information and Data Acquisition System
Tripno 1232 of the Zeeleeuw from 2007-03-16 08:07:43 to 2007-03-16 14:35:49
Back to CruiseResearch ActivitiesStationsMapUnderway DataData graphs

EquipmentUnitsComments
TimeDGPSUTC
LatitudeDGPSDM.mWGS84
LongitudeDGPSDM.mWGS84
SpeedMeteo Stationm/sRelative wind speed
DirectionMeteo StationdegRelative wind direction
TemperatureMeteo Stationdeg CelciusAir temperature
PressureMeteo StationPaAtmospheric pressure
HumidityMeteo Station%Relative humidity
Missing or incorrect values are displayed as -999
Metereological data collected by the RV Zeeleeuw from 2007-03-16 08:07:44 to 2007-03-16 14:45:47
                                                                                    Next 1000 lines
Time Latitude Longitude Speed Direction Temperature Pressure Humidity
2007-03-16 08:07:54 51°13.596 2°56.093 2.5 20 9.5 102720 94
2007-03-16 08:07:59 51°13.597 2°56.091 2.5 36 9.5 102720 94
2007-03-16 08:08:04 51°13.598 2°56.089 2.8 19 9.5 102720 94
2007-03-16 08:08:09 51°13.599 2°56.086 2.5 34 9.5 102720 94
2007-03-16 08:08:14 51°13.6 2°56.082 3.3 28 9.5 102720 94
2007-03-16 08:08:19 51°13.602 2°56.077 2.8 32 9.5 102720 94
2007-03-16 08:08:24 51°13.603 2°56.072 4.3 27 9.5 102720 94
2007-03-16 08:08:29 51°13.605 2°56.066 6.1 37 9.5 102720 94
2007-03-16 08:08:34 51°13.607 2°56.06 6 27 9.5 102720 94
2007-03-16 08:08:39 51°13.609 2°56.053 5.5 37 9.5 102720 94
2007-03-16 08:08:44 51°13.611 2°56.046 4.9 24 9.6 102720 94
2007-03-16 08:08:49 51°13.614 2°56.038 5.1 37 9.6 102720 94
2007-03-16 08:08:54 51°13.616 2°56.03 5 25 9.6 102720 94
2007-03-16 08:08:59 51°13.619 2°56.022 3.9 31 9.6 102720 94
2007-03-16 08:09:04 51°13.622 2°56.013 3 21 9.6 102720 94
2007-03-16 08:09:09 51°13.625 2°56.003 1.9 37 9.6 102720 94
2007-03-16 08:09:14 51°13.628 2°55.993 2.9 20 9.6 102720 94
2007-03-16 08:09:19 51°13.631 2°55.983 3.6 38 9.6 102720 94
2007-03-16 08:09:24 51°13.634 2°55.973 4.2 28 9.6 102720 94
2007-03-16 08:09:29 51°13.638 2°55.962 4.8 36 9.6 102720 94
2007-03-16 08:09:34 51°13.642 2°55.951 4.6 24 9.6 102720 94
2007-03-16 08:09:39 51°13.645 2°55.94 5 39 9.6 102720 94
2007-03-16 08:09:44 51°13.649 2°55.929 5.1 23 9.8 102720 94
2007-03-16 08:09:49 51°13.653 2°55.918 4.6 33 9.8 102720 94
2007-03-16 08:09:54 51°13.656 2°55.907 4.2 20 9.8 102720 95
2007-03-16 08:09:59 51°13.66 2°55.896 3 37 9.8 102720 95
2007-03-16 08:10:04 51°13.663 2°55.886 4.1 23 9.8 102720 94
2007-03-16 08:10:09 51°13.666 2°55.876 4.2 33 9.8 102720 94
2007-03-16 08:10:14 51°13.669 2°55.866 4.9 22 9.8 102720 94
2007-03-16 08:10:19 51°13.671 2°55.856 2.9 32 9.8 102720 94
2007-03-16 08:10:24 51°13.673 2°55.847 2.2 25 9.8 102720 94
2007-03-16 08:10:29 51°13.675 2°55.837 4.6 31 9.8 102720 94
2007-03-16 08:10:34 51°13.677 2°55.829 5.2 24 9.8 102720 94
2007-03-16 08:10:39 51°13.679 2°55.82 4.8 38 9.8 102720 94
2007-03-16 08:10:44 51°13.68 2°55.812 4.6 25 9.9 102720 94
2007-03-16 08:10:49 51°13.681 2°55.804 4.4 36 9.9 102720 94
2007-03-16 08:10:54 51°13.682 2°55.796 3.3 19 9.8 102720 94
2007-03-16 08:10:59 51°13.683 2°55.789 4.7 38 9.8 102720 94
2007-03-16 08:11:04 51°13.683 2°55.782 4.1 20 9.8 102720 93
2007-03-16 08:11:09 51°13.684 2°55.775 4.3 37 9.8 102720 93
2007-03-16 08:11:14 51°13.684 2°55.768 3.9 21 9.8 102720 93
2007-03-16 08:11:19 51°13.684 2°55.762 3.4 35 9.8 102720 93
2007-03-16 08:11:24 51°13.684 2°55.756 3.2 23 9.8 102720 93
2007-03-16 08:11:29 51°13.684 2°55.751 2.6 32 9.8 102720 93
2007-03-16 08:11:34 51°13.684 2°55.746 2.2 21 9.8 102720 93
2007-03-16 08:11:39 51°13.684 2°55.741 2.4 34 9.8 102720 93
2007-03-16 08:11:44 51°13.683 2°55.738 2.9 270 9.8 102720 93
2007-03-16 08:11:49 51°13.683 2°55.736 2.2 263 9.8 102720 93
2007-03-16 08:11:54 51°13.684 2°55.735 1.6 270 9.7 102720 93
2007-03-16 08:11:59 51°13.684 2°55.735 0.9 260 9.7 102720 93
2007-03-16 08:12:04 51°13.685 2°55.735 1.5 27 9.7 102720 93
2007-03-16 08:12:09 51°13.686 2°55.736 5 254 9.7 102720 93
2007-03-16 08:12:14 51°13.688 2°55.737 4.3 252 9.8 102720 93
2007-03-16 08:12:19 51°13.689 2°55.739 3.6 254 9.8 102720 93
2007-03-16 08:12:24 51°13.692 2°55.741 4.1 24 9.7 102720 93
2007-03-16 08:12:29 51°13.695 2°55.742 3.8 244 9.7 102720 93
2007-03-16 08:12:34 51°13.698 2°55.743 4.3 23 9.7 102720 93
2007-03-16 08:12:39 51°13.701 2°55.743 4.8 35 9.7 102720 93
2007-03-16 08:12:44 51°13.704 2°55.744 5.4 27 9.7 102720 93
2007-03-16 08:12:49 51°13.708 2°55.743 5.1 31 9.7 102720 93
2007-03-16 08:12:54 51°13.712 2°55.742 4.7 24 9.7 102720 93
2007-03-16 08:12:59 51°13.716 2°55.74 5.1 317 9.7 102720 93
2007-03-16 08:13:04 51°13.721 2°55.737 5.1 316 9.7 102720 93
2007-03-16 08:13:09 51°13.726 2°55.732 5.9 317 9.7 102720 93
2007-03-16 08:13:14 51°13.732 2°55.726 6.5 317 9.7 102720 93
2007-03-16 08:13:19 51°13.738 2°55.72 5.1 325 9.7 102720 93
2007-03-16 08:13:24 51°13.745 2°55.712 5 327 9.7 102720 93
2007-03-16 08:13:29 51°13.753 2°55.704 5.4 322 9.7 102720 93
2007-03-16 08:13:34 51°13.762 2°55.695 5.1 327 9.7 102710 93
2007-03-16 08:13:39 51°13.771 2°55.686 5.6 331 9.7 102710 93
2007-03-16 08:13:44 51°13.781 2°55.676 5.8 329 9.7 102710 93
2007-03-16 08:13:49 51°13.791 2°55.666 6.4 331 9.7 102710 93
2007-03-16 08:13:54 51°13.802 2°55.656 6.8 331 9.7 102720 93
2007-03-16 08:13:59 51°13.814 2°55.646 7 329 9.7 102720 93
2007-03-16 08:14:04 51°13.825 2°55.637 7.9 329 9.7 102710 93
2007-03-16 08:14:09 51°13.838 2°55.628 7.7 337 9.7 102710 93
2007-03-16 08:14:14 51°13.85 2°55.619 7.1 336 9.7 102720 93
2007-03-16 08:14:19 51°13.862 2°55.609 8 330 9.7 102720 93
2007-03-16 08:14:24 51°13.874 2°55.601 7.1 326 9.6 102720 93
2007-03-16 08:14:29 51°13.886 2°55.592 7 330 9.6 102720 93
2007-03-16 08:14:34 51°13.899 2°55.583 8 329 9.6 102720 93
2007-03-16 08:14:39 51°13.911 2°55.575 7.7 318 9.6 102720 93
2007-03-16 08:14:44 51°13.924 2°55.567 6.6 318 9.6 102720 93
2007-03-16 08:14:49 51°13.936 2°55.558 6.4 329 9.6 102720 93
2007-03-16 08:14:54 51°13.947 2°55.55 6.9 326 9.6 102720 93
2007-03-16 08:14:59 51°13.958 2°55.542 6.7 325 9.6 102720 93
2007-03-16 08:15:04 51°13.969 2°55.535 6.4 326 9.6 102720 93
2007-03-16 08:15:09 51°13.979 2°55.527 5.4 323 9.6 102720 93
2007-03-16 08:15:14 51°13.989 2°55.52 6 327 9.6 102710 93
2007-03-16 08:15:19 51°13.999 2°55.512 7.1 324 9.6 102710 93
2007-03-16 08:15:24 51°14.009 2°55.505 6.7 320 9.6 102720 93
2007-03-16 08:15:29 51°14.019 2°55.498 6.5 320 9.6 102720 93
2007-03-16 08:15:34 51°14.028 2°55.492 7 320 9.6 102710 93
2007-03-16 08:15:39 51°14.038 2°55.485 5.7 321 9.6 102710 93
2007-03-16 08:15:44 51°14.047 2°55.479 5.2 323 9.6 102720 93
2007-03-16 08:15:49 51°14.057 2°55.472 6.6 323 9.6 102720 93
2007-03-16 08:15:54 51°14.066 2°55.466 7.6 324 9.6 102710 93
2007-03-16 08:15:59 51°14.075 2°55.459 6.9 321 9.6 102710 93
2007-03-16 08:16:04 51°14.085 2°55.452 7.1 321 9.6 102710 93
2007-03-16 08:16:09 51°14.094 2°55.445 6.8 319 9.6 102710 93
2007-03-16 08:16:14 51°14.103 2°55.438 7.4 321 9.6 102720 93
2007-03-16 08:16:19 51°14.113 2°55.431 7.1 320 9.6 102720 93
2007-03-16 08:16:24 51°14.123 2°55.423 7.2 321 9.6 102720 93
2007-03-16 08:16:29 51°14.133 2°55.414 8.1 321 9.6 102720 93
2007-03-16 08:16:34 51°14.144 2°55.404 8.3 321 9.6 102710 93
2007-03-16 08:16:39 51°14.156 2°55.394 8.1 322 9.6 102710 93
2007-03-16 08:16:44 51°14.167 2°55.383 8.2 325 9.6 102710 93
2007-03-16 08:16:49 51°14.179 2°55.372 8.4 323 9.6 102710 93
2007-03-16 08:16:54 51°14.191 2°55.359 8.4 324 9.6 102710 93
2007-03-16 08:16:59 51°14.203 2°55.345 9.4 325 9.6 102710 93
2007-03-16 08:17:04 51°14.215 2°55.331 8.7 327 9.5 102710 93
2007-03-16 08:17:09 51°14.226 2°55.315 9.6 327 9.5 102710 93
2007-03-16 08:17:14 51°14.237 2°55.299 8.9 329 9.5 102710 93
2007-03-16 08:17:19 51°14.249 2°55.281 8.9 327 9.5 102710 93
2007-03-16 08:17:24 51°14.259 2°55.263 8.5 327 9.6 102710 93
2007-03-16 08:17:29 51°14.271 2°55.243 10.6 328 9.6 102710 93
2007-03-16 08:17:34 51°14.282 2°55.223 10.3 328 9.5 102710 94
2007-03-16 08:17:39 51°14.293 2°55.201 10.8 326 9.5 102710 94
2007-03-16 08:17:44 51°14.305 2°55.18 11.2 327 9.5 102710 94
2007-03-16 08:17:49 51°14.316 2°55.158 11 327 9.5 102710 94
2007-03-16 08:17:54 51°14.328 2°55.136 10.9 328 9.5 102710 94
2007-03-16 08:17:59 51°14.34 2°55.113 11.4 328 9.5 102710 94
2007-03-16 08:18:04 51°14.352 2°55.091 10.9 329 9.5 102710 94
2007-03-16 08:18:09 51°14.363 2°55.068 10.6 330 9.5 102710 94
2007-03-16 08:18:14 51°14.374 2°55.044 10.8 329 9.5 102710 94
2007-03-16 08:18:19 51°14.385 2°55.021 11.4 330 9.5 102710 94
2007-03-16 08:18:24 51°14.396 2°54.997 11.1 330 9.5 102710 94
2007-03-16 08:18:29 51°14.406 2°54.972 10.4 330 9.5 102710 94
2007-03-16 08:18:34 51°14.415 2°54.947 10.7 331 9.5 102710 94
2007-03-16 08:18:39 51°14.423 2°54.92 11.5 333 9.5 102710 94
2007-03-16 08:18:44 51°14.431 2°54.894 11.3 332 9.5 102710 94
2007-03-16 08:18:49 51°14.437 2°54.867 11.1 334 9.5 102710 94
2007-03-16 08:18:54 51°14.442 2°54.839 11.2 334 9.5 102710 94
2007-03-16 08:18:59 51°14.445 2°54.81 11.4 336 9.5 102710 94
2007-03-16 08:19:04 51°14.448 2°54.782 11.1 335 9.4 102710 94
2007-03-16 08:19:09 51°14.45 2°54.753 10.5 335 9.4 102710 94
2007-03-16 08:19:14 51°14.452 2°54.725 10.4 335 9.4 102710 94
2007-03-16 08:19:19 51°14.452 2°54.696 11.2 339 9.4 102710 94
2007-03-16 08:19:24 51°14.451 2°54.668 11 338 9.4 102710 94
2007-03-16 08:19:29 51°14.449 2°54.64 10.4 339 9.4 102710 94
2007-03-16 08:19:34 51°14.446 2°54.611 10.1 338 9.4 102710 94
2007-03-16 08:19:39 51°14.442 2°54.584 10.9 341 9.4 102710 94
2007-03-16 08:19:44 51°14.438 2°54.557 10.9 341 9.4 102720 94
2007-03-16 08:19:49 51°14.431 2°54.53 10.5 344 9.4 102720 94
2007-03-16 08:19:54 51°14.424 2°54.504 10.1 343 9.4 102720 94
2007-03-16 08:19:59 51°14.415 2°54.48 9.8 343 9.4 102720 94
2007-03-16 08:20:04 51°14.405 2°54.457 9.6 343 9.4 102710 94
2007-03-16 08:20:09 51°14.395 2°54.434 9.6 343 9.4 102710 94
2007-03-16 08:20:14 51°14.385 2°54.41 9.6 345 9.4 102710 94
2007-03-16 08:20:19 51°14.375 2°54.387 9.9 343 9.4 102710 94
2007-03-16 08:20:24 51°14.366 2°54.363 10 344 9.4 102720 94
2007-03-16 08:20:29 51°14.357 2°54.338 10 343 9.4 102720 94
2007-03-16 08:20:34 51°14.348 2°54.314 9.7 342 9.4 102720 94
2007-03-16 08:20:39 51°14.34 2°54.289 9.9 343 9.4 102720 94
2007-03-16 08:20:44 51°14.331 2°54.264 9.4 345 9.4 102710 94
2007-03-16 08:20:49 51°14.322 2°54.24 10.2 346 9.4 102710 94
2007-03-16 08:20:54 51°14.312 2°54.215 10.4 346 9.3 102720 94
2007-03-16 08:20:59 51°14.303 2°54.191 9.7 342 9.3 102720 94
2007-03-16 08:21:04 51°14.294 2°54.167 10 344 9.4 102720 94
2007-03-16 08:21:09 51°14.284 2°54.142 9.1 343 9.4 102720 94
2007-03-16 08:21:14 51°14.275 2°54.118 8.9 343 9.4 102720 94
2007-03-16 08:21:19 51°14.265 2°54.094 9.5 344 9.4 102720 94
2007-03-16 08:21:24 51°14.256 2°54.069 9.7 344 9.3 102710 94
2007-03-16 08:21:29 51°14.246 2°54.045 9.2 343 9.3 102710 94
2007-03-16 08:21:34 51°14.237 2°54.021 9.6 344 9.3 102710 94
2007-03-16 08:21:39 51°14.227 2°53.997 9.5 345 9.3 102710 94
2007-03-16 08:21:44 51°14.218 2°53.972 9.6 345 9.3 102710 94
2007-03-16 08:21:49 51°14.209 2°53.948 8.8 343 9.3 102710 94
2007-03-16 08:21:54 51°14.199 2°53.924 9 342 9.3 102730 94
2007-03-16 08:21:59 51°14.19 2°53.899 9.5 342 9.3 102730 94
2007-03-16 08:22:04 51°14.181 2°53.875 9.4 344 9.3 102720 94
2007-03-16 08:22:09 51°14.171 2°53.85 9.2 343 9.3 102720 94
2007-03-16 08:22:14 51°14.162 2°53.826 9.2 344 9.3 102720 95
2007-03-16 08:22:19 51°14.153 2°53.801 10 345 9.3 102720 95
2007-03-16 08:22:24 51°14.144 2°53.777 10 345 9.3 102720 95
2007-03-16 08:22:29 51°14.134 2°53.753 9.7 344 9.3 102720 95
2007-03-16 08:22:34 51°14.125 2°53.728 9.8 344 9.3 102720 95
2007-03-16 08:22:39 51°14.116 2°53.704 9.5 344 9.3 102720 95
2007-03-16 08:22:44 51°14.106 2°53.679 9.3 344 9.3 102720 95
2007-03-16 08:22:49 51°14.097 2°53.655 9.9 345 9.3 102720 95
2007-03-16 08:22:54 51°14.088 2°53.631 10.2 345 9.3 102720 95
2007-03-16 08:22:59 51°14.078 2°53.606 9.2 344 9.3 102720 95
2007-03-16 08:23:04 51°14.069 2°53.582 9.6 344 9.3 102710 95
2007-03-16 08:23:09 51°14.06 2°53.557 9.5 344 9.3 102710 95
2007-03-16 08:23:14 51°14.051 2°53.533 9.6 344 9.3 102720 95
2007-03-16 08:23:19 51°14.041 2°53.508 9.3 343 9.3 102720 95
2007-03-16 08:23:24 51°14.032 2°53.484 9.6 344 9.3 102720 95
2007-03-16 08:23:29 51°14.023 2°53.459 9.8 344 9.3 102720 95
2007-03-16 08:23:34 51°14.013 2°53.435 9.5 344 9.3 102720 95
2007-03-16 08:23:39 51°14.004 2°53.41 9.5 343 9.3 102720 95
2007-03-16 08:23:44 51°13.995 2°53.386 9.2 343 9.3 102720 95
2007-03-16 08:23:49 51°13.985 2°53.361 9.6 344 9.3 102720 95
2007-03-16 08:23:54 51°13.976 2°53.337 9.7 346 9.3 102720 95
2007-03-16 08:23:59 51°13.966 2°53.313 9.5 343 9.3 102720 95
2007-03-16 08:24:04 51°13.957 2°53.288 9.1 343 9.3 102720 95
2007-03-16 08:24:09 51°13.948 2°53.264 9.8 344 9.3 102720 95
2007-03-16 08:24:14 51°13.939 2°53.239 9.7 344 9.3 102710 95
2007-03-16 08:24:19 51°13.929 2°53.215 9.4 343 9.3 102710 95
2007-03-16 08:24:24 51°13.92 2°53.19 10.2 344 9.3 102720 95
2007-03-16 08:24:29 51°13.911 2°53.166 9.3 344 9.3 102720 95
2007-03-16 08:24:34 51°13.902 2°53.141 9.4 343 9.3 102720 95
2007-03-16 08:24:39 51°13.893 2°53.117 10.2 345 9.3 102720 95
2007-03-16 08:24:44 51°13.883 2°53.092 9.3 343 9.3 102720 95
2007-03-16 08:24:49 51°13.874 2°53.067 9.5 344 9.3 102720 95
2007-03-16 08:24:54 51°13.865 2°53.043 9.6 345 9.2 102720 95
2007-03-16 08:24:59 51°13.856 2°53.018 9.3 343 9.2 102720 95
2007-03-16 08:25:04 51°13.847 2°52.994 9.9 344 9.2 102720 95
2007-03-16 08:25:09 51°13.837 2°52.969 9.5 345 9.2 102720 95
2007-03-16 08:25:14 51°13.828 2°52.944 9.2 344 9.2 102720 95
2007-03-16 08:25:19 51°13.819 2°52.92 9.9 344 9.2 102720 95
2007-03-16 08:25:24 51°13.81 2°52.895 9.8 344 9.2 102720 95
2007-03-16 08:25:29 51°13.801 2°52.87 9.5 345 9.2 102720 95
2007-03-16 08:25:34 51°13.792 2°52.845 9.4 343 9.2 102720 95
2007-03-16 08:25:39 51°13.782 2°52.821 9.7 346 9.2 102720 95
2007-03-16 08:25:44 51°13.773 2°52.796 9.7 346 9.2 102720 95
2007-03-16 08:25:49 51°13.764 2°52.771 9.6 343 9.2 102720 95
2007-03-16 08:25:54 51°13.755 2°52.746 9.1 346 9.2 102720 95
2007-03-16 08:25:59 51°13.746 2°52.721 9.4 345 9.2 102720 95
2007-03-16 08:26:04 51°13.737 2°52.696 9.7 346 9.2 102720 95
2007-03-16 08:26:09 51°13.728 2°52.671 10 344 9.2 102720 95
2007-03-16 08:26:14 51°13.719 2°52.646 9.8 346 9.2 102720 95
2007-03-16 08:26:19 51°13.71 2°52.621 9.5 345 9.2 102720 95
2007-03-16 08:26:24 51°13.701 2°52.596 10.4 346 9.2 102720 95
2007-03-16 08:26:29 51°13.692 2°52.571 9.4 346 9.2 102720 95
2007-03-16 08:26:34 51°13.683 2°52.546 9.4 345 9.2 102720 95
2007-03-16 08:26:39 51°13.673 2°52.521 10 345 9.2 102720 95
2007-03-16 08:26:44 51°13.665 2°52.496 9.7 346 9.2 102710 95
2007-03-16 08:26:49 51°13.655 2°52.471 9.5 345 9.2 102710 95
2007-03-16 08:26:54 51°13.646 2°52.446 9.7 345 9.2 102710 95
2007-03-16 08:26:59 51°13.637 2°52.421 9.8 348 9.2 102710 95
2007-03-16 08:27:04 51°13.628 2°52.396 9.8 345 9.2 102720 95
2007-03-16 08:27:09 51°13.619 2°52.371 9.6 346 9.2 102720 95
2007-03-16 08:27:14 51°13.609 2°52.346 9.6 345 9.2 102720 95
2007-03-16 08:27:19 51°13.6 2°52.32 9.9 345 9.2 102720 95
2007-03-16 08:27:24 51°13.591 2°52.296 9.5 345 9.2 102720 95
2007-03-16 08:27:29 51°13.582 2°52.271 9.8 346 9.2 102720 95
2007-03-16 08:27:34 51°13.573 2°52.246 9.3 345 9.2 102720 95
2007-03-16 08:27:39 51°13.563 2°52.221 9.4 345 9.2 102720 95
2007-03-16 08:27:44 51°13.554 2°52.196 9.4 346 9.2 102730 95
2007-03-16 08:27:49 51°13.545 2°52.171 8.9 345 9.2 102730 95
2007-03-16 08:27:54 51°13.536 2°52.146 9.4 346 9.2 102730 95
2007-03-16 08:27:59 51°13.526 2°52.121 9.3 346 9.2 102730 95
2007-03-16 08:28:04 51°13.517 2°52.096 9.8 344 9.2 102720 95
2007-03-16 08:28:09 51°13.507 2°52.071 9.4 345 9.2 102720 95
2007-03-16 08:28:14 51°13.498 2°52.046 9.1 345 9.2 102720 95
2007-03-16 08:28:19 51°13.489 2°52.021 9.5 346 9.2 102720 95
2007-03-16 08:28:24 51°13.48 2°51.996 9.8 347 9.2 102720 95
2007-03-16 08:28:29 51°13.471 2°51.971 9.6 347 9.2 102720 95
2007-03-16 08:28:34 51°13.461 2°51.947 9.2 346 9.2 102720 95
2007-03-16 08:28:39 51°13.452 2°51.921 9.3 345 9.2 102720 95
2007-03-16 08:28:44 51°13.443 2°51.896 8.9 345 9.2 102730 95
2007-03-16 08:28:49 51°13.434 2°51.871 9.7 346 9.2 102730 95
2007-03-16 08:28:54 51°13.425 2°51.846 9.7 345 9.2 102720 95
2007-03-16 08:28:59 51°13.415 2°51.821 9.4 347 9.2 102720 95
2007-03-16 08:29:04 51°13.406 2°51.797 9.6 345 9.2 102720 95
2007-03-16 08:29:09 51°13.397 2°51.771 9.8 348 9.2 102720 95
2007-03-16 08:29:14 51°13.387 2°51.747 9.4 345 9.2 102730 95
2007-03-16 08:29:19 51°13.378 2°51.722 9.4 347 9.2 102730 95
2007-03-16 08:29:24 51°13.369 2°51.697 9.9 347 9.2 102720 95
2007-03-16 08:29:29 51°13.359 2°51.672 9.1 344 9.2 102720 95
2007-03-16 08:29:34 51°13.35 2°51.647 9.1 344 9.2 102720 95
2007-03-16 08:29:39 51°13.341 2°51.621 9.8 347 9.2 102720 95
2007-03-16 08:29:44 51°13.332 2°51.597 9.9 346 9.2 102720 95
2007-03-16 08:29:49 51°13.323 2°51.571 9.3 345 9.2 102720 95
2007-03-16 08:29:54 51°13.313 2°51.546 9.1 346 9.2 102720 95
2007-03-16 08:29:59 51°13.304 2°51.521 9.1 345 9.2 102720 95
2007-03-16 08:30:04 51°13.295 2°51.497 9.2 343 9.2 102720 95
2007-03-16 08:30:09 51°13.286 2°51.471 9.7 345 9.2 102720 95
2007-03-16 08:30:14 51°13.276 2°51.446 9.4 345 9.2 102720 95
2007-03-16 08:30:19 51°13.267 2°51.421 9.5 346 9.2 102720 95
2007-03-16 08:30:24 51°13.258 2°51.397 9.8 347 9.2 102720 95
2007-03-16 08:30:29 51°13.248 2°51.372 9.4 346 9.2 102720 95
2007-03-16 08:30:34 51°13.239 2°51.347 9.4 345 9.2 102720 95
2007-03-16 08:30:39 51°13.23 2°51.322 9.1 344 9.2 102720 95
2007-03-16 08:30:44 51°13.221 2°51.297 9.1 344 9.2 102720 95
2007-03-16 08:30:49 51°13.212 2°51.273 9.2 346 9.2 102720 95
2007-03-16 08:30:54 51°13.202 2°51.248 9 345 9.2 102720 95
2007-03-16 08:30:59 51°13.193 2°51.223 10.1 347 9.2 102720 95
2007-03-16 08:31:05 51°13.182 2°51.194 9.6 346 9.2 102720 95
2007-03-16 08:31:10 51°13.173 2°51.169 9.3 346 9.2 102720 95
2007-03-16 08:31:15 51°13.163 2°51.145 9.4 347 9.2 102720 95
2007-03-16 08:31:19 51°13.156 2°51.125 9.6 344 9.2 102720 95
2007-03-16 08:31:25 51°13.145 2°51.096 9.1 345 9.2 102720 95
2007-03-16 08:31:29 51°13.138 2°51.076 9.4 347 9.2 102720 95
2007-03-16 08:31:35 51°13.127 2°51.046 9.5 347 9.2 102720 95
2007-03-16 08:31:39 51°13.12 2°51.026 9.4 345 9.2 102720 95
2007-03-16 08:31:45 51°13.11 2°50.996 9.3 344 9.2 102720 95
2007-03-16 08:31:49 51°13.104 2°50.976 10 347 9.2 102720 95
2007-03-16 08:31:55 51°13.093 2°50.946 9.3 343 9.2 102720 95
2007-03-16 08:32:00 51°13.085 2°50.921 9.5 344 9.2 102720 95
2007-03-16 08:32:05 51°13.077 2°50.896 9.7 344 9.2 102720 95
2007-03-16 08:32:09 51°13.07 2°50.876 9.1 346 9.2 102720 95
2007-03-16 08:32:14 51°13.062 2°50.85 8.8 344 9.2 102720 95
2007-03-16 08:32:20 51°13.052 2°50.82 9.2 345 9.2 102720 95
2007-03-16 08:32:25 51°13.043 2°50.796 9.7 345 9.2 102720 95
2007-03-16 08:32:30 51°13.035 2°50.77 9.5 346 9.2 102720 95
2007-03-16 08:32:35 51°13.026 2°50.745 9.4 344 9.2 102720 95
2007-03-16 08:32:40 51°13.018 2°50.72 9.3 346 9.2 102720 95
2007-03-16 08:32:45 51°13.009 2°50.695 9.8 344 9.2 102720 95
2007-03-16 08:32:50 51°13.001 2°50.67 9.6 345 9.2 102720 95
2007-03-16 08:32:54 51°12.994 2°50.65 9.1 346 9.2 102720 95
2007-03-16 08:33:00 51°12.984 2°50.62 8.6 345 9.2 102720 95
2007-03-16 08:33:04 51°12.977 2°50.6 8.9 344 9.2 102720 95
2007-03-16 08:33:10 51°12.967 2°50.57 9.1 343 9.2 102720 95
2007-03-16 08:33:14 51°12.96 2°50.55 9 344 9.2 102720 95
2007-03-16 08:33:20 51°12.95 2°50.52 9.1 343 9.2 102720 95
2007-03-16 08:33:24 51°12.943 2°50.5 9.5 345 9.2 102720 95
2007-03-16 08:33:30 51°12.933 2°50.47 9.7 345 9.2 102720 95
2007-03-16 08:33:35 51°12.924 2°50.445 9.6 346 9.2 102720 95
2007-03-16 08:33:39 51°12.917 2°50.425 9 344 9.2 102720 95
2007-03-16 08:33:44 51°12.909 2°50.4 9 345 9.2 102720 95
2007-03-16 08:33:49 51°12.9 2°50.375 9 342 9.2 102720 95
2007-03-16 08:33:55 51°12.891 2°50.344 9.2 343 9.2 102720 95
2007-03-16 08:33:59 51°12.884 2°50.324 9.1 341 9.2 102720 95
2007-03-16 08:34:05 51°12.874 2°50.294 8.8 343 9.2 102720 95
2007-03-16 08:34:09 51°12.867 2°50.274 8.7 344 9.2 102720 95
2007-03-16 08:34:15 51°12.858 2°50.243 9.1 343 9.2 102720 95
2007-03-16 08:34:20 51°12.849 2°50.218 9.3 344 9.2 102720 95
2007-03-16 08:34:25 51°12.841 2°50.193 8.8 341 9.2 102720 95
2007-03-16 08:34:29 51°12.834 2°50.173 9.2 342 9.2 102720 95
2007-03-16 08:34:35 51°12.824 2°50.142 9.4 343 9.2 102720 95
2007-03-16 08:34:40 51°12.815 2°50.117 8.9 340 9.2 102720 95
2007-03-16 08:34:45 51°12.807 2°50.092 9.1 342 9.2 102720 95
2007-03-16 08:34:50 51°12.799 2°50.067 9.2 343 9.2 102720 95
2007-03-16 08:34:55 51°12.79 2°50.041 9.3 342 9.2 102720 95
2007-03-16 08:35:00 51°12.782 2°50.016 9.2 344 9.2 102720 95
2007-03-16 08:35:05 51°12.774 2°49.991 8.8 344 9.2 102720 95
2007-03-16 08:35:10 51°12.765 2°49.965 9 341 9.2 102720 95
2007-03-16 08:35:15 51°12.757 2°49.94 9.3 342 9.2 102720 95
2007-03-16 08:35:20 51°12.749 2°49.915 9.6 344 9.2 102720 95
2007-03-16 08:35:25 51°12.74 2°49.89 9.6 343 9.2 102720 95
2007-03-16 08:35:30 51°12.732 2°49.864 9.3 344 9.2 102720 95
2007-03-16 08:35:34 51°12.725 2°49.845 9.1 342 9.2 102720 95
2007-03-16 08:35:40 51°12.715 2°49.814 9.5 344 9.2 102720 95
2007-03-16 08:35:45 51°12.707 2°49.789 9.2 344 9.2 102720 95
2007-03-16 08:35:50 51°12.698 2°49.764 9.8 343 9.2 102720 95
2007-03-16 08:35:55 51°12.69 2°49.739 10 344 9.2 102720 95
2007-03-16 08:36:00 51°12.681 2°49.713 9.1 344 9.2 102720 95
2007-03-16 08:36:04 51°12.675 2°49.693 9.3 344 9.2 102720 95
2007-03-16 08:36:10 51°12.665 2°49.663 9.1 343 9.2 102720 95
2007-03-16 08:36:15 51°12.657 2°49.638 9.3 343 9.2 102720 95
2007-03-16 08:36:20 51°12.648 2°49.613 9.5 343 9.2 102720 95
2007-03-16 08:36:24 51°12.642 2°49.593 9.2 343 9.2 102720 95
2007-03-16 08:36:30 51°12.632 2°49.562 8.7 342 9.2 102720 95
2007-03-16 08:36:35 51°12.624 2°49.537 9.5 341 9.2 102720 95
2007-03-16 08:36:39 51°12.617 2°49.517 9.2 343 9.2 102720 95
2007-03-16 08:36:45 51°12.607 2°49.487 9.7 344 9.2 102720 95
2007-03-16 08:36:50 51°12.599 2°49.462 9.4 342 9.2 102720 95
2007-03-16 08:36:55 51°12.59 2°49.436 9.3 343 9.2 102720 95
2007-03-16 08:36:59 51°12.584 2°49.416 9 343 9.2 102720 95
2007-03-16 08:37:05 51°12.574 2°49.386 9 343 9.2 102720 95
2007-03-16 08:37:09 51°12.567 2°49.366 9.6 343 9.2 102720 95
2007-03-16 08:37:15 51°12.557 2°49.336 9.1 343 9.2 102720 95
2007-03-16 08:37:20 51°12.549 2°49.311 9 345 9.2 102720 95
2007-03-16 08:37:25 51°12.54 2°49.286 9.1 344 9.2 102720 95
2007-03-16 08:37:29 51°12.534 2°49.265 9 343 9.2 102720 95
2007-03-16 08:37:35 51°12.524 2°49.236 9.4 342 9.2 102720 95
2007-03-16 08:37:40 51°12.516 2°49.211 9.2 342 9.2 102720 95
2007-03-16 08:37:45 51°12.508 2°49.185 9.1 342 9.2 102720 95
2007-03-16 08:37:50 51°12.499 2°49.16 9.7 342 9.2 102720 95
2007-03-16 08:37:54 51°12.493 2°49.14 9.5 343 9.2 102720 95
2007-03-16 08:38:00 51°12.483 2°49.11 9.1 343 9.2 102720 95
2007-03-16 08:38:05 51°12.475 2°49.085 9.3 343 9.2 102720 95
2007-03-16 08:38:10 51°12.466 2°49.06 8.9 341 9.2 102720 95
2007-03-16 08:38:14 51°12.46 2°49.04 9 343 9.2 102720 95
2007-03-16 08:38:20 51°12.45 2°49.01 9 342 9.2 102720 95
2007-03-16 08:38:24 51°12.443 2°48.99 9 343 9.2 102720 95
2007-03-16 08:38:30 51°12.433 2°48.96 9.2 344 9.2 102720 95
2007-03-16 08:38:35 51°12.425 2°48.935 9.2 344 9.3 102720 95
2007-03-16 08:38:40 51°12.417 2°48.91 9.1 342 9.3 102720 95
2007-03-16 08:38:44 51°12.41 2°48.89 9.2 344 9.2 102720 95
2007-03-16 08:38:50 51°12.4 2°48.859 9.1 343 9.2 102720 95
2007-03-16 08:38:55 51°12.392 2°48.834 8.8 342 9.3 102720 95
2007-03-16 08:38:59 51°12.385 2°48.814 8.6 343 9.3 102720 95
2007-03-16 08:39:04 51°12.377 2°48.789 8.8 341 9.2 102720 95
2007-03-16 08:39:10 51°12.367 2°48.759 9 343 9.2 102720 95
2007-03-16 08:39:15 51°12.359 2°48.734 9.1 343 9.2 102720 95
2007-03-16 08:39:20 51°12.35 2°48.709 9.2 342 9.2 102720 95
2007-03-16 08:39:25 51°12.342 2°48.684 9.1 342 9.3 102720 95
2007-03-16 08:39:30 51°12.333 2°48.659 9.6 343 9.3 102720 95
2007-03-16 08:39:35 51°12.325 2°48.634 9.5 343 9.3 102720 95
2007-03-16 08:39:39 51°12.319 2°48.614 8.9 343 9.3 102720 95
2007-03-16 08:39:45 51°12.309 2°48.584 9.6 343 9.2 102720 95
2007-03-16 08:39:49 51°12.304 2°48.563 9.3 342 9.2 102720 95
2007-03-16 08:39:55 51°12.296 2°48.532 9.4 344 9.3 102720 95
2007-03-16 08:40:00 51°12.29 2°48.505 9.4 344 9.3 102720 95
2007-03-16 08:40:05 51°12.284 2°48.479 9.2 343 9.3 102720 95
2007-03-16 08:40:10 51°12.278 2°48.452 9.8 340 9.3 102720 95
2007-03-16 08:40:15 51°12.272 2°48.426 9.5 342 9.3 102720 95
2007-03-16 08:40:20 51°12.266 2°48.399 9.3 342 9.3 102720 95
2007-03-16 08:40:25 51°12.261 2°48.372 9.9 342 9.3 102720 95
2007-03-16 08:40:30 51°12.255 2°48.345 9.6 341 9.3 102720 95
2007-03-16 08:40:35 51°12.249 2°48.319 9.6 342 9.2 102720 95
2007-03-16 08:40:40 51°12.243 2°48.292 9.9 342 9.2 102720 95
2007-03-16 08:40:45 51°12.238 2°48.265 10.3 343 9.3 102720 95
2007-03-16 08:40:50 51°12.232 2°48.238 10.2 342 9.3 102720 95
2007-03-16 08:40:54 51°12.227 2°48.217 9.7 343 9.3 102720 95
2007-03-16 08:41:00 51°12.221 2°48.185 9.9 343 9.3 102720 95
2007-03-16 08:41:05 51°12.215 2°48.158 9.5 342 9.3 102720 95
2007-03-16 08:41:10 51°12.209 2°48.132 9.6 342 9.3 102720 95
2007-03-16 08:41:15 51°12.203 2°48.105 9.3 341 9.3 102720 95
2007-03-16 08:41:20 51°12.198 2°48.078 9.9 342 9.3 102720 95
2007-03-16 08:41:25 51°12.192 2°48.051 9.8 342 9.3 102720 94
2007-03-16 08:41:30 51°12.186 2°48.025 9.4 342 9.3 102720 94
2007-03-16 08:41:35 51°12.18 2°47.998 9.5 342 9.3 102720 95
2007-03-16 08:41:40 51°12.174 2°47.971 9.4 342 9.3 102720 95
2007-03-16 08:41:44 51°12.17 2°47.95 9.7 343 9.3 102720 95
2007-03-16 08:41:50 51°12.164 2°47.917 9.7 343 9.3 102720 95
2007-03-16 08:41:55 51°12.158 2°47.89 9.6 341 9.3 102720 94
2007-03-16 08:42:00 51°12.153 2°47.863 9.9 342 9.3 102720 94
2007-03-16 08:42:05 51°12.149 2°47.835 9.6 343 9.3 102720 94
2007-03-16 08:42:10 51°12.144 2°47.808 9.6 343 9.3 102720 94
2007-03-16 08:42:15 51°12.139 2°47.781 9.5 341 9.3 102720 94
2007-03-16 08:42:19 51°12.135 2°47.759 8.9 340 9.3 102720 94
2007-03-16 08:42:25 51°12.129 2°47.726 9.1 341 9.3 102720 94
2007-03-16 08:42:29 51°12.125 2°47.705 9.4 340 9.3 102720 94
2007-03-16 08:42:35 51°12.119 2°47.672 9.8 341 9.3 102720 94
2007-03-16 08:42:39 51°12.115 2°47.65 9.4 340 9.3 102720 94
2007-03-16 08:42:45 51°12.109 2°47.617 10.1 341 9.3 102730 94
2007-03-16 08:42:49 51°12.105 2°47.595 9.5 341 9.3 102730 94
2007-03-16 08:42:55 51°12.099 2°47.563 9.3 342 9.3 102720 94
2007-03-16 08:43:00 51°12.094 2°47.536 9 342 9.3 102720 94
2007-03-16 08:43:05 51°12.089 2°47.508 9.6 341 9.3 102730 94
2007-03-16 08:43:10 51°12.084 2°47.481 10 342 9.3 102730 94
2007-03-16 08:43:15 51°12.079 2°47.454 10.1 343 9.3 102730 94
2007-03-16 08:43:20 51°12.074 2°47.427 9.7 342 9.3 102730 94
2007-03-16 08:43:25 51°12.069 2°47.4 9.4 341 9.3 102720 94
2007-03-16 08:43:30 51°12.064 2°47.372 10 341 9.3 102720 94
2007-03-16 08:43:34 51°12.06 2°47.351 9.6 341 9.3 102720 94
2007-03-16 08:43:40 51°12.055 2°47.318 9.5 342 9.3 102720 94
2007-03-16 08:43:45 51°12.051 2°47.29 9.4 341 9.3 102720 94
2007-03-16 08:43:50 51°12.049 2°47.262 9.6 340 9.3 102720 94
2007-03-16 08:43:54 51°12.047 2°47.239 10 340 9.3 102720 94
2007-03-16 08:44:00 51°12.045 2°47.205 9.9 339 9.3 102720 94
2007-03-16 08:44:05 51°12.044 2°47.177 9.9 338 9.3 102720 94
2007-03-16 08:44:10 51°12.044 2°47.149 10.1 338 9.3 102720 94
2007-03-16 08:44:15 51°12.043 2°47.12 9.8 339 9.3 102720 94
2007-03-16 08:44:20 51°12.043 2°47.092 9.8 338 9.3 102720 94
2007-03-16 08:44:24 51°12.043 2°47.069 9.6 339 9.3 102720 94
2007-03-16 08:44:30 51°12.042 2°47.035 9.9 339 9.3 102720 94
2007-03-16 08:44:35 51°12.041 2°47.006 9.9 339 9.3 102720 94
2007-03-16 08:44:39 51°12.039 2°46.984 9.8 340 9.3 102720 94
2007-03-16 08:44:44 51°12.038 2°46.956 9.8 339 9.3 102720 94
2007-03-16 08:44:49 51°12.036 2°46.927 10.1 339 9.3 102720 94
2007-03-16 08:44:54 51°12.033 2°46.899 10.2 339 9.3 102730 94
2007-03-16 08:44:58 51°12.031 2°46.877 9.8 339 9.3 102730 94
2007-03-16 08:45:02 51°12.029 2°46.854 9.8 340 9.3 102730 94
2007-03-16 08:45:07 51°12.026 2°46.826 9.5 339 9.3 102730 94
2007-03-16 08:45:13 51°12.023 2°46.793 9.5 339 9.3 102720 94
2007-03-16 08:45:18 51°12.02 2°46.765 9.5 340 9.3 102720 94
2007-03-16 08:45:23 51°12.017 2°46.737 10 339 9.3 102730 94
2007-03-16 08:45:27 51°12.015 2°46.714 9.5 340 9.3 102730 94
2007-03-16 08:45:31 51°12.012 2°46.692 9.3 338 9.3 102730 94
2007-03-16 08:45:37 51°12.009 2°46.658 9.9 339 9.3 102730 94
2007-03-16 08:45:41 51°12.006 2°46.636 10.1 338 9.3 102720 94
2007-03-16 08:45:47 51°12.003 2°46.603 10.1 340 9.3 102720 94
2007-03-16 08:45:51 51°12 2°46.58 9.7 340 9.3 102730 94
2007-03-16 08:45:57 51°11.997 2°46.547 9.9 340 9.3 102730 94
2007-03-16 08:46:02 51°11.993 2°46.52 9.4 340 9.3 102720 94
2007-03-16 08:46:07 51°11.99 2°46.492 9.7 338 9.3 102720 94
2007-03-16 08:46:10 51°11.988 2°46.476 9.7 339 9.3 102730 94
2007-03-16 08:46:16 51°11.985 2°46.443 9.5 339 9.3 102730 94
2007-03-16 08:46:21 51°11.981 2°46.416 9.8 339 9.3 102730 94
2007-03-16 08:46:25 51°11.979 2°46.394 9.5 339 9.3 102730 94
2007-03-16 08:46:31 51°11.975 2°46.361 10 339 9.3 102730 94
2007-03-16 08:46:35 51°11.973 2°46.339 9.4 338 9.3 102730 94
2007-03-16 08:46:40 51°11.97 2°46.312 10.2 339 9.3 102730 94
2007-03-16 08:46:45 51°11.967 2°46.284 9.8 341 9.3 102730 94
2007-03-16 08:46:50 51°11.964 2°46.257 9.7 339 9.3 102720 94
2007-03-16 08:46:55 51°11.961 2°46.23 10 338 9.3 102720 94
2007-03-16 08:47:01 51°11.957 2°46.197 9.8 339 9.3 102730 94
2007-03-16 08:47:05 51°11.955 2°46.176 10 340 9.3 102730 94
2007-03-16 08:47:11 51°11.952 2°46.143 9.9 338 9.3 102730 94
2007-03-16 08:47:16 51°11.949 2°46.116 9.6 339 9.3 102730 94
2007-03-16 08:47:21 51°11.946 2°46.088 9.7 339 9.3 102730 94
2007-03-16 08:47:24 51°11.944 2°46.072 9.6 339 9.3 102730 94
2007-03-16 08:47:30 51°11.94 2°46.04 9.7 339 9.3 102730 94
2007-03-16 08:47:35 51°11.937 2°46.012 9.4 337 9.3 102730 94
2007-03-16 08:47:40 51°11.934 2°45.985 9.5 339 9.3 102730 94
2007-03-16 08:47:45 51°11.931 2°45.958 9.8 339 9.3 102730 94
2007-03-16 08:47:50 51°11.928 2°45.93 9.6 339 9.3 102730 94
2007-03-16 08:47:55 51°11.925 2°45.903 9.4 339 9.3 102730 94
2007-03-16 08:48:01 51°11.922 2°45.871 9.8 338 9.3 102730 94
2007-03-16 08:48:05 51°11.919 2°45.849 9.5 340 9.3 102730 94
2007-03-16 08:48:11 51°11.915 2°45.816 9.4 340 9.3 102730 94
2007-03-16 08:48:16 51°11.913 2°45.789 9.8 338 9.3 102730 94
2007-03-16 08:48:21 51°11.91 2°45.762 9.6 339 9.3 102730 94
2007-03-16 08:48:26 51°11.907 2°45.735 9.7 338 9.3 102730 94
2007-03-16 08:48:30 51°11.904 2°45.713 10 339 9.3 102730 94
2007-03-16 08:48:35 51°11.901 2°45.686 9.9 339 9.3 102730 94
2007-03-16 08:48:39 51°11.898 2°45.664 9.7 340 9.3 102730 94
2007-03-16 08:48:45 51°11.895 2°45.632 9.6 341 9.3 102730 94
2007-03-16 08:48:50 51°11.892 2°45.605 9.8 340 9.3 102720 94
2007-03-16 08:48:55 51°11.889 2°45.577 9.9 339 9.3 102720 94
2007-03-16 08:49:01 51°11.885 2°45.545 9.8 340 9.3 102730 94
2007-03-16 08:49:06 51°11.882 2°45.518 9.8 339 9.3 102730 94
2007-03-16 08:49:11 51°11.879 2°45.491 9.8 340 9.3 102730 94
2007-03-16 08:49:16 51°11.876 2°45.464 9.8 340 9.3 102730 94
2007-03-16 08:49:21 51°11.873 2°45.436 10.1 340 9.3 102730 94
2007-03-16 08:49:25 51°11.871 2°45.415 9.7 339 9.3 102730 94
2007-03-16 08:49:31 51°11.867 2°45.382 9.7 340 9.3 102730 94
2007-03-16 08:49:36 51°11.864 2°45.355 9.9 340 9.3 102730 94
2007-03-16 08:49:41 51°11.86 2°45.328 9.8 340 9.3 102730 94
2007-03-16 08:49:46 51°11.857 2°45.301 9.4 339 9.3 102730 94
2007-03-16 08:49:51 51°11.854 2°45.274 9.9 339 9.3 102720 94
2007-03-16 08:49:56 51°11.851 2°45.247 9.6 339 9.3 102720 94
2007-03-16 08:50:01 51°11.848 2°45.22 9.4 339 9.3 102730 94
2007-03-16 08:50:05 51°11.846 2°45.198 10.1 339 9.3 102730 94
2007-03-16 08:50:10 51°11.843 2°45.171 9.9 339 9.3 102730 94
2007-03-16 08:50:15 51°11.84 2°45.144 9.9 338 9.3 102730 94
2007-03-16 08:50:20 51°11.837 2°45.117 9.9 338 9.3 102730 94
2007-03-16 08:50:25 51°11.834 2°45.09 9.9 339 9.3 102730 94
2007-03-16 08:50:30 51°11.831 2°45.063 10.1 340 9.3 102730 94
2007-03-16 08:50:35 51°11.827 2°45.036 10.1 341 9.3 102730 94
2007-03-16 08:50:41 51°11.824 2°45.004 10.1 339 9.3 102730 94
2007-03-16 08:50:45 51°11.821 2°44.982 10.3 341 9.3 102730 94
2007-03-16 08:50:50 51°11.818 2°44.955 9.7 341 9.3 102730 94
2007-03-16 08:50:55 51°11.815 2°44.929 10.3 340 9.3 102730 94
2007-03-16 08:51:00 51°11.812 2°44.902 9.8 340 9.3 102730 94
2007-03-16 08:51:05 51°11.808 2°44.875 10 340 9.3 102730 94
2007-03-16 08:51:10 51°11.805 2°44.848 9 339 9.3 102730 94
2007-03-16 08:51:15 51°11.802 2°44.821 9.6 339 9.3 102730 94
2007-03-16 08:51:20 51°11.799 2°44.795 9.5 339 9.3 102730 94
2007-03-16 08:51:25 51°11.796 2°44.768 10.1 341 9.3 102730 94
2007-03-16 08:51:30 51°11.793 2°44.741 9.6 340 9.3 102730 94
2007-03-16 08:51:35 51°11.79 2°44.714 9.6 339 9.3 102730 94
2007-03-16 08:51:41 51°11.786 2°44.681 9.7 341 9.3 102730 94
2007-03-16 08:51:45 51°11.784 2°44.66 9.4 338 9.3 102730 94
2007-03-16 08:51:51 51°11.78 2°44.627 10.2 340 9.3 102730 94
2007-03-16 08:51:56 51°11.777 2°44.6 9.5 339 9.3 102730 94
2007-03-16 08:52:01 51°11.774 2°44.573 9.9 339 9.3 102730 94
2007-03-16 08:52:05 51°11.771 2°44.552 9.6 340 9.3 102730 94
2007-03-16 08:52:11 51°11.768 2°44.519 9.9 341 9.3 102720 94
2007-03-16 08:52:16 51°11.765 2°44.492 9.5 340 9.3 102720 94
2007-03-16 08:52:21 51°11.762 2°44.465 10.2 339 9.3 102730 94
2007-03-16 08:52:25 51°11.759 2°44.444 10.3 340 9.3 102730 94
2007-03-16 08:52:31 51°11.755 2°44.411 10.5 341 9.3 102730 94
2007-03-16 08:52:36 51°11.752 2°44.384 9.7 341 9.3 102730 94
2007-03-16 08:52:41 51°11.749 2°44.357 9.7 341 9.3 102730 94
2007-03-16 08:52:45 51°11.746 2°44.336 10.1 341 9.3 102730 94
2007-03-16 08:52:51 51°11.742 2°44.303 10 340 9.3 102720 94
2007-03-16 08:52:56 51°11.739 2°44.276 9.7 340 9.3 102720 94
2007-03-16 08:53:01 51°11.736 2°44.249 10.1 341 9.3 102730 94
2007-03-16 08:53:05 51°11.733 2°44.228 9.8 339 9.3 102730 94
2007-03-16 08:53:10 51°11.73 2°44.201 9.5 340 9.3 102730 94
2007-03-16 08:53:15 51°11.727 2°44.174 10.1 341 9.3 102730 94
2007-03-16 08:53:19 51°11.724 2°44.152 10.6 343 9.3 102730 94
2007-03-16 08:53:25 51°11.72 2°44.12 10.3 345 9.3 102730 94
2007-03-16 08:53:30 51°11.717 2°44.093 9.7 343 9.3 102730 94
2007-03-16 08:53:36 51°11.713 2°44.06 9.6 342 9.3 102730 94
2007-03-16 08:53:40 51°11.711 2°44.039 9.5 348 9.3 102730 94
2007-03-16 08:53:45 51°11.707 2°44.012 9.6 346 9.3 102730 94
2007-03-16 08:53:51 51°11.704 2°43.979 9.6 347 9.3 102730 94
2007-03-16 08:53:56 51°11.701 2°43.952 9.8 347 9.3 102730 94
2007-03-16 08:54:01 51°11.698 2°43.925 9.7 348 9.3 102730 94
2007-03-16 08:54:05 51°11.695 2°43.904 9.6 347 9.3 102730 94
2007-03-16 08:54:11 51°11.691 2°43.871 9.5 347 9.3 102720 94
2007-03-16 08:54:16 51°11.688 2°43.844 9.2 347 9.3 102720 94
2007-03-16 08:54:21 51°11.685 2°43.817 9.5 347 9.3 102720 94
2007-03-16 08:54:25 51°11.683 2°43.795 9.4 346 9.3 102720 94
2007-03-16 08:54:30 51°11.68 2°43.768 9.2 346 9.3 102720 94
2007-03-16 08:54:36 51°11.676 2°43.736 9.5 346 9.3 102720 94
2007-03-16 08:54:41 51°11.673 2°43.709 9.6 347 9.2 102730 94
2007-03-16 08:54:45 51°11.67 2°43.687 9.5 348 9.2 102730 94
2007-03-16 08:54:51 51°11.666 2°43.655 9.4 347 9.2 102720 94
2007-03-16 08:54:56 51°11.663 2°43.628 9.2 347 9.2 102720 94
2007-03-16 08:55:01 51°11.66 2°43.601 9.3 347 9.2 102730 94
2007-03-16 08:55:05 51°11.658 2°43.579 4.4 348 9.2 102730 94
2007-03-16 08:55:11 51°11.654 2°43.547 9.1 347 9.2 102720 94
2007-03-16 08:55:15 51°11.651 2°43.525 9 348 9.2 102720 94
2007-03-16 08:55:21 51°11.648 2°43.493 9.2 348 9.1 102730 94
2007-03-16 08:55:25 51°11.645 2°43.471 9.3 348 9.1 102730 94
2007-03-16 08:55:30 51°11.642 2°43.444 9 347 9.1 102730 95
2007-03-16 08:55:35 51°11.639 2°43.417 9.2 345 9.1 102730 95
2007-03-16 08:55:40 51°11.636 2°43.39 9.5 345 9.1 102730 95
2007-03-16 08:55:45 51°11.633 2°43.363 9.6 346 9.1 102730 95
2007-03-16 08:55:50 51°11.629 2°43.336 9.6 347 9.1 102730 95
2007-03-16 08:55:56 51°11.626 2°43.304 9.2 345 9.1 102730 95
2007-03-16 08:56:01 51°11.623 2°43.276 9.8 346 9.1 102730 95
2007-03-16 08:56:05 51°11.62 2°43.255 9.5 345 9.1 102730 95
2007-03-16 08:56:11 51°11.616 2°43.222 9.6 347 9.1 102730 95
2007-03-16 08:56:16 51°11.613 2°43.195 9.5 346 9.1 102730 95
2007-03-16 08:56:20 51°11.611 2°43.173 9.6 347 9 102730 95
2007-03-16 08:56:25 51°11.609 2°43.146 9.5 347 9 102730 95
2007-03-16 08:56:30 51°11.605 2°43.119 9.5 347 9 102730 95
2007-03-16 08:56:36 51°11.602 2°43.086 9.3 348 9 102730 95
2007-03-16 08:56:41 51°11.599 2°43.059 9.4 347 9 102730 95
2007-03-16 08:56:45 51°11.597 2°43.037 10 346 9 102730 95
2007-03-16 08:56:50 51°11.593 2°43.01 9.7 346 9 102730 95
2007-03-16 08:56:56 51°11.59 2°42.978 9.6 346 9 102730 95
2007-03-16 08:57:01 51°11.587 2°42.951 9.7 346 9 102730 95
2007-03-16 08:57:05 51°11.584 2°42.929 9.3 347 9 102730 95
2007-03-16 08:57:11 51°11.58 2°42.897 9.7 347 9 102730 95
2007-03-16 08:57:16 51°11.577 2°42.869 9.6 347 9 102730 95
2007-03-16 08:57:21 51°11.574 2°42.843 9.4 347 9 102730 96
2007-03-16 08:57:25 51°11.572 2°42.821 9.7 348 9 102730 96
2007-03-16 08:57:30 51°11.569 2°42.794 9.3 348 9 102730 96
2007-03-16 08:57:36 51°11.565 2°42.762 9.9 348 9 102730 96
2007-03-16 08:57:41 51°11.562 2°42.735 9.7 345 9 102730 96
2007-03-16 08:57:45 51°11.56 2°42.713 9.8 347 9 102730 96
2007-03-16 08:57:50 51°11.556 2°42.686 9.7 346 8.9 102730 96
2007-03-16 08:57:56 51°11.553 2°42.654 9.3 346 8.9 102730 96
2007-03-16 08:58:01 51°11.55 2°42.627 9.5 346 8.9 102730 96
2007-03-16 08:58:05 51°11.548 2°42.606 10 347 8.9 102730 96
2007-03-16 08:58:10 51°11.545 2°42.579 9.9 347 8.9 102740 96
2007-03-16 08:58:16 51°11.541 2°42.546 9.8 347 8.9 102740 96
2007-03-16 08:58:21 51°11.538 2°42.519 9.9 348 8.9 102730 96
2007-03-16 08:58:25 51°11.535 2°42.498 9.3 347 8.9 102730 96
2007-03-16 08:58:30 51°11.532 2°42.471 9.5 347 8.9 102730 96
2007-03-16 08:58:35 51°11.528 2°42.445 9.6 347 8.9 102730 96
2007-03-16 08:58:41 51°11.522 2°42.413 9.2 348 8.9 102730 96
2007-03-16 08:58:45 51°11.519 2°42.392 9.3 347 8.9 102730 96
2007-03-16 08:58:50 51°11.513 2°42.366 9.3 348 8.9 102730 96
2007-03-16 08:58:55 51°11.509 2°42.339 9 347 8.9 102730 96
2007-03-16 08:59:01 51°11.503 2°42.308 9.2 349 8.9 102730 96
2007-03-16 08:59:05 51°11.499 2°42.287 9.2 349 8.9 102730 96
2007-03-16 08:59:10 51°11.494 2°42.261 8.9 347 8.9 102730 96
2007-03-16 08:59:16 51°11.488 2°42.229 9.1 346 8.9 102730 96
2007-03-16 08:59:21 51°11.483 2°42.203 9.4 348 8.9 102730 96
2007-03-16 08:59:25 51°11.479 2°42.181 9.1 348 8.9 102730 96
2007-03-16 08:59:30 51°11.474 2°42.155 9.2 348 8.9 102730 96
2007-03-16 08:59:35 51°11.469 2°42.129 9 348 8.9 102730 96
2007-03-16 08:59:41 51°11.463 2°42.097 8.9 348 8.9 102740 96
2007-03-16 08:59:45 51°11.459 2°42.076 8.8 347 8.9 102740 96
2007-03-16 08:59:50 51°11.454 2°42.05 8.7 347 8.9 102730 96
2007-03-16 08:59:56 51°11.448 2°42.018 8.8 347 8.9 102730 96
2007-03-16 09:00:00 51°11.444 2°41.997 9.2 348 8.9 102730 96
2007-03-16 09:00:05 51°11.439 2°41.97 9.2 346 8.9 102730 96
2007-03-16 09:00:10 51°11.434 2°41.944 9 347 8.9 102730 96
2007-03-16 09:00:15 51°11.429 2°41.917 9.1 347 8.9 102730 96
2007-03-16 09:00:20 51°11.425 2°41.891 8.8 345 8.8 102730 96
2007-03-16 09:00:25 51°11.42 2°41.864 8.8 346 8.8 102730 96
2007-03-16 09:00:30 51°11.415 2°41.838 8.9 348 8.8 102730 96
2007-03-16 09:00:35 51°11.41 2°41.811 9 347 8.8 102730 96
2007-03-16 09:00:40 51°11.405 2°41.785 9 346 8.9 102730 96
2007-03-16 09:00:45 51°11.4 2°41.759 9.1 346 8.9 102730 96
2007-03-16 09:00:50 51°11.395 2°41.732 9.3 346 8.8 102730 96
2007-03-16 09:00:55 51°11.391 2°41.706 9.2 346 8.8 102730 96
2007-03-16 09:01:01 51°11.385 2°41.674 9.2 346 8.8 102730 96
2007-03-16 09:01:05 51°11.381 2°41.653 8.9 347 8.8 102730 96
2007-03-16 09:01:10 51°11.376 2°41.627 9.1 348 8.9 102730 97
2007-03-16 09:01:15 51°11.371 2°41.6 8.9 347 8.9 102730 97
2007-03-16 09:01:21 51°11.365 2°41.569 8.5 346 8.8 102730 97
2007-03-16 09:01:25 51°11.361 2°41.548 9 347 8.8 102730 97
2007-03-16 09:01:30 51°11.357 2°41.522 9 348 8.8 102730 96
2007-03-16 09:01:35 51°11.352 2°41.496 9.1 347 8.8 102730 96
2007-03-16 09:01:41 51°11.346 2°41.465 9.4 347 8.8 102730 96
2007-03-16 09:01:45 51°11.342 2°41.444 9.1 347 8.8 102730 96
2007-03-16 09:01:50 51°11.337 2°41.417 9.7 348 8.8 102730 97
2007-03-16 09:01:55 51°11.332 2°41.391 9.3 346 8.8 102730 97
2007-03-16 09:02:00 51°11.327 2°41.365 9 348 8.8 102730 97
2007-03-16 09:02:05 51°11.322 2°41.339 9.5 347 8.8 102730 97
2007-03-16 09:02:11 51°11.317 2°41.308 9.5 347 8.8 102720 97
2007-03-16 09:02:15 51°11.313 2°41.287 9 348 8.8 102720 97
2007-03-16 09:02:19 51°11.309 2°41.267 8.9 347 8.8 102730 97
2007-03-16 09:02:25 51°11.303 2°41.235 9 346 8.8 102730 97
2007-03-16 09:02:30 51°11.299 2°41.209 9.1 346 8.8 102730 97
2007-03-16 09:02:35 51°11.294 2°41.183 9 347 8.8 102730 97
2007-03-16 09:02:39 51°11.29 2°41.162 8.9 345 8.8 102730 97
2007-03-16 09:02:45 51°11.284 2°41.131 9.4 346 8.8 102730 97
2007-03-16 09:02:50 51°11.28 2°41.105 9.7 346 8.8 102740 97
2007-03-16 09:02:55 51°11.275 2°41.078 9.6 348 8.8 102740 97
2007-03-16 09:03:01 51°11.269 2°41.047 9.5 346 8.8 102730 97
2007-03-16 09:03:05 51°11.265 2°41.026 9.1 348 8.8 102730 97
2007-03-16 09:03:10 51°11.261 2°41 9.3 347 8.8 102730 97
2007-03-16 09:03:15 51°11.256 2°40.974 8.9 347 8.8 102730 97
2007-03-16 09:03:21 51°11.25 2°40.943 8.6 346 8.8 102730 96
2007-03-16 09:03:25 51°11.247 2°40.922 9.1 346 8.8 102730 96
2007-03-16 09:03:30 51°11.242 2°40.896 9.1 347 8.8 102730 96
2007-03-16 09:03:35 51°11.237 2°40.869 9.5 347 8.8 102730 96
2007-03-16 09:03:41 51°11.232 2°40.838 9.1 347 8.8 102730 96
2007-03-16 09:03:45 51°11.228 2°40.817 8.7 345 8.8 102730 96
2007-03-16 09:03:50 51°11.224 2°40.791 9.6 345 8.8 102740 96
2007-03-16 09:03:55 51°11.219 2°40.765 9.1 346 8.8 102740 96
2007-03-16 09:04:01 51°11.214 2°40.733 9.5 346 8.8 102730 96
2007-03-16 09:04:05 51°11.21 2°40.712 9.5 347 8.8 102730 96
2007-03-16 09:04:10 51°11.205 2°40.686 9.4 347 8.8 102740 96
2007-03-16 09:04:15 51°11.201 2°40.66 9.2 347 8.8 102740 96
2007-03-16 09:04:20 51°11.196 2°40.634 9.5 347 8.8 102730 96
2007-03-16 09:04:25 51°11.192 2°40.608 9.2 345 8.8 102730 96
2007-03-16 09:04:30 51°11.187 2°40.581 9.4 346 8.8 102730 96
2007-03-16 09:04:35 51°11.183 2°40.555 10.1 347 8.8 102730 96
2007-03-16 09:04:40 51°11.179 2°40.529 9.9 347 8.9 102730 96
2007-03-16 09:04:45 51°11.174 2°40.503 9.4 348 8.9 102730 96
2007-03-16 09:04:50 51°11.169 2°40.477 9 349 8.9 102730 96
2007-03-16 09:04:55 51°11.164 2°40.451 8.6 348 8.9 102730 96
2007-03-16 09:05:00 51°11.158 2°40.426 8.9 349 8.8 102740 97
2007-03-16 09:05:05 51°11.153 2°40.401 8.7 348 8.8 102740 97
2007-03-16 09:05:10 51°11.147 2°40.375 8.8 347 8.8 102730 96
2007-03-16 09:05:15 51°11.141 2°40.35 9.2 348 8.8 102730 96
2007-03-16 09:05:19 51°11.136 2°40.33 9.3 349 8.8 102740 96
2007-03-16 09:05:25 51°11.128 2°40.299 9.1 348 8.8 102740 96
2007-03-16 09:05:30 51°11.122 2°40.274 9.2 348 8.8 102730 96
2007-03-16 09:05:35 51°11.116 2°40.249 9.1 349 8.8 102730 96
2007-03-16 09:05:40 51°11.11 2°40.224 8.9 349 8.8 102740 96
2007-03-16 09:05:45 51°11.104 2°40.198 8.8 348 8.8 102740 96
2007-03-16 09:05:50 51°11.098 2°40.173 9.2 347 8.8 102740 96
2007-03-16 09:05:55 51°11.092 2°40.148 8.8 350 8.8 102740 96
2007-03-16 09:06:00 51°11.086 2°40.122 8.6 347 8.8 102730 96
2007-03-16 09:06:05 51°11.08 2°40.097 8.7 348 8.8 102730 96
2007-03-16 09:06:10 51°11.074 2°40.071 8.7 349 8.8 102740 96
2007-03-16 09:06:15 51°11.068 2°40.046 8.3 350 8.8 102740 96
2007-03-16 09:06:20 51°11.061 2°40.022 7.9 348 8.8 102740 96
2007-03-16 09:06:25 51°11.052 2°39.998 7.6 349 8.8 102740 96
2007-03-16 09:06:30 51°11.044 2°39.974 7.4 349 8.8 102730 96
2007-03-16 09:06:35 51°11.035 2°39.952 7.6 351 8.8 102730 96
2007-03-16 09:06:40 51°11.026 2°39.929 7.7 350 8.8 102730 96
2007-03-16 09:06:45 51°11.015 2°39.909 7.3 350 8.8 102730 96
2007-03-16 09:06:50 51°11.004 2°39.889 7.6 350 8.8 102730 96
2007-03-16 09:06:56 51°10.989 2°39.866 7.4 352 8.8 102730 96
2007-03-16 09:06:59 51°10.982 2°39.854 7.4 351 8.8 102730 96
2007-03-16 09:07:05 51°10.967 2°39.832 7 350 8.8 102730 96
2007-03-16 09:07:10 51°10.955 2°39.813 7.5 350 8.8 102740 96
2007-03-16 09:07:15 51°10.942 2°39.795 7.3 352 8.8 102740 96
2007-03-16 09:07:21 51°10.927 2°39.774 7.4 351 8.8 102740 96
2007-03-16 09:07:25 51°10.916 2°39.76 7.1 351 8.8 102740 96
2007-03-16 09:07:30 51°10.903 2°39.742 6.9 350 8.8 102740 96
2007-03-16 09:07:36 51°10.887 2°39.722 6.6 351 8.8 102740 96
2007-03-16 09:07:41 51°10.874 2°39.704 6.8 351 8.8 102740 96
2007-03-16 09:07:46 51°10.86 2°39.688 6.8 353 8.8 102740 96
2007-03-16 09:07:50 51°10.849 2°39.674 6.9 354 8.8 102740 96
2007-03-16 09:07:55 51°10.836 2°39.657 6.5 353 8.8 102740 96
2007-03-16 09:08:01 51°10.82 2°39.637 6.3 352 8.8 102740 96
2007-03-16 09:08:06 51°10.806 2°39.62 6.3 354 8.8 102740 96
2007-03-16 09:08:11 51°10.793 2°39.603 6.5 354 8.8 102740 96
2007-03-16 09:08:16 51°10.779 2°39.586 6.6 353 8.8 102740 96
2007-03-16 09:08:21 51°10.766 2°39.569 6.5 350 8.8 102740 96
2007-03-16 09:08:26 51°10.752 2°39.552 6.3 353 8.8 102740 96
2007-03-16 09:08:31 51°10.739 2°39.535 6.5 353 8.8 102740 96
2007-03-16 09:08:36 51°10.725 2°39.518 6 354 8.8 102740 96
2007-03-16 09:08:41 51°10.712 2°39.5 6.6 350 8.8 102740 96
2007-03-16 09:08:46 51°10.699 2°39.483 6.2 351 8.8 102740 96
2007-03-16 09:08:51 51°10.685 2°39.466 6.4 352 8.8 102740 96
2007-03-16 09:08:56 51°10.672 2°39.448 6.3 354 8.8 102740 96
2007-03-16 09:09:01 51°10.659 2°39.431 6.2 353 8.8 102740 96
2007-03-16 09:09:06 51°10.645 2°39.414 6.5 350 8.8 102740 96
2007-03-16 09:09:11 51°10.632 2°39.396 7 352 8.8 102740 96
2007-03-16 09:09:16 51°10.618 2°39.379 6.7 351 8.8 102740 96
2007-03-16 09:09:20 51°10.608 2°39.365 7.1 351 8.8 102740 96
2007-03-16 09:09:26 51°10.592 2°39.344 6.9 352 8.8 102740 96
2007-03-16 09:09:31 51°10.579 2°39.326 7.1 353 8.8 102740 96
2007-03-16 09:09:36 51°10.565 2°39.308 6.9 353 8.8 102740 96
2007-03-16 09:09:40 51°10.555 2°39.294 7.1 353 8.8 102740 96
2007-03-16 09:09:46 51°10.539 2°39.273 7.1 355 8.8 102740 96
2007-03-16 09:09:51 51°10.525 2°39.256 6.8 353 8.8 102740 96
2007-03-16 09:09:56 51°10.512 2°39.238 6.9 354 8.8 102740 96
2007-03-16 09:10:01 51°10.499 2°39.221 6.6 353 8.8 102740 96
2007-03-16 09:10:06 51°10.485 2°39.203 6.6 354 8.8 102740 96
2007-03-16 09:10:11 51°10.472 2°39.186 6.7 350 8.8 102740 96
2007-03-16 09:10:16 51°10.458 2°39.168 6.5 353 8.8 102740 96
2007-03-16 09:10:21 51°10.445 2°39.151 6.7 352 8.8 102740 96
2007-03-16 09:10:26 51°10.432 2°39.133 6.6 354 8.8 102740 96
2007-03-16 09:10:31 51°10.419 2°39.115 6.3 354 8.8 102740 96
2007-03-16 09:10:36 51°10.405 2°39.098 6.7 352 8.8 102740 96
2007-03-16 09:10:41 51°10.392 2°39.08 6.7 353 8.8 102740 96
2007-03-16 09:10:46 51°10.379 2°39.062 7 353 8.8 102740 96
2007-03-16 09:10:51 51°10.365 2°39.044 6.8 352 8.8 102740 96
2007-03-16 09:10:56 51°10.352 2°39.027 6.2 352 8.8 102740 96
2007-03-16 09:11:01 51°10.339 2°39.009 6.4 353 8.8 102740 96
2007-03-16 09:11:06 51°10.325 2°38.991 7.1 352 8.8 102740 96
2007-03-16 09:11:11 51°10.312 2°38.973 6.9 353 8.8 102740 96
2007-03-16 09:11:16 51°10.299 2°38.956 7.1 350 8.8 102740 96
2007-03-16 09:11:21 51°10.285 2°38.939 6.9 352 8.8 102740 96
2007-03-16 09:11:26 51°10.272 2°38.921 7.5 350 8.8 102740 96
2007-03-16 09:11:31 51°10.258 2°38.903 7.3 353 8.8 102740 96
2007-03-16 09:11:36 51°10.245 2°38.885 7.3 352 8.8 102740 96
2007-03-16 09:11:41 51°10.232 2°38.867 7.5 353 8.8 102740 96
2007-03-16 09:11:46 51°10.219 2°38.847 7.5 352 8.8 102740 96
2007-03-16 09:11:51 51°10.206 2°38.829 7.2 352 8.9 102740 96
2007-03-16 09:11:56 51°10.194 2°38.81 7.3 354 8.9 102740 96
2007-03-16 09:12:01 51°10.181 2°38.791 7.2 350 8.9 102740 96
2007-03-16 09:12:06 51°10.168 2°38.772 7.3 354 8.9 102740 96
2007-03-16 09:12:11 51°10.155 2°38.754 7.1 354 8.8 102740 96
2007-03-16 09:12:16 51°10.142 2°38.735 7.1 354 8.8 102740 96
2007-03-16 09:12:21 51°10.129 2°38.716 7.5 352 8.8 102740 96
2007-03-16 09:12:26 51°10.116 2°38.697 7 355 8.8 102740 96
2007-03-16 09:12:31 51°10.103 2°38.679 6.9 353 8.8 102740 96
2007-03-16 09:12:36 51°10.09 2°38.661 7 354 8.8 102740 96
2007-03-16 09:12:41 51°10.077 2°38.641 7 350 8.8 102740 96
2007-03-16 09:12:46 51°10.064 2°38.623 6.9 350 8.8 102740 96
2007-03-16 09:12:51 51°10.051 2°38.604 7 352 8.8 102740 96
2007-03-16 09:12:56 51°10.038 2°38.586 6.8 353 8.8 102740 96
2007-03-16 09:13:01 51°10.025 2°38.568 6.5 353 8.8 102740 96
2007-03-16 09:13:06 51°10.012 2°38.55 7.4 353 8.8 102740 96
2007-03-16 09:13:11 51°9.999 2°38.531 7.2 350 8.9 102740 96
2007-03-16 09:13:16 51°9.986 2°38.513 6.9 352 8.9 102740 96
2007-03-16 09:13:21 51°9.973 2°38.495 6.9 353 8.8 102740 96
2007-03-16 09:13:26 51°9.96 2°38.477 6.9 351 8.8 102740 96
2007-03-16 09:13:31 51°9.947 2°38.459 6.6 350 8.8 102740 96
2007-03-16 09:13:36 51°9.933 2°38.442 6.8 351 8.8 102740 96
2007-03-16 09:13:41 51°9.92 2°38.423 7 351 8.8 102740 96
2007-03-16 09:13:46 51°9.907 2°38.405 7.1 351 8.8 102740 96
2007-03-16 09:13:51 51°9.894 2°38.387 7.4 353 8.8 102740 96
2007-03-16 09:13:56 51°9.881 2°38.369 7.1 354 8.8 102740 96
2007-03-16 09:14:00 51°9.871 2°38.354 6.9 353 8.8 102740 96
2007-03-16 09:14:06 51°9.855 2°38.333 6.9 353 8.8 102740 96
2007-03-16 09:14:11 51°9.842 2°38.314 7.2 354 8.8 102740 96
2007-03-16 09:14:16 51°9.829 2°38.296 7 354 8.8 102740 96
2007-03-16 09:14:21 51°9.816 2°38.278 6.9 354 8.8 102740 96
2007-03-16 09:14:25 51°9.806 2°38.264 6.5 354 8.8 102740 96
2007-03-16 09:14:31 51°9.79 2°38.242 6.9 353 8.9 102740 96
2007-03-16 09:14:36 51°9.777 2°38.224 7.1 349 8.9 102740 96
2007-03-16 09:14:41 51°9.764 2°38.206 7.1 351 8.8 102740 96
2007-03-16 09:14:45 51°9.754 2°38.191 7.2 353 8.8 102740 96
2007-03-16 09:14:51 51°9.738 2°38.17 7.1 353 8.8 102740 96
2007-03-16 09:14:56 51°9.725 2°38.152 6.6 351 8.8 102740 96
2007-03-16 09:15:01 51°9.711 2°38.134 6.4 352 8.8 102740 96
2007-03-16 09:15:06 51°9.698 2°38.116 6.6 352 8.8 102740 96
2007-03-16 09:15:11 51°9.685 2°38.098 6.6 352 8.8 102740 96
2007-03-16 09:15:16 51°9.672 2°38.08 6 353 8.8 102740 96
2007-03-16 09:15:21 51°9.659 2°38.062 6.2 352 8.8 102740 95
2007-03-16 09:15:26 51°9.646 2°38.044 6.2 351 8.8 102740 95
2007-03-16 09:15:31 51°9.633 2°38.026 6.5 350 8.8 102740 95
2007-03-16 09:15:36 51°9.62 2°38.009 6.7 350 8.8 102740 95
2007-03-16 09:15:41 51°9.607 2°37.99 7.2 351 8.9 102740 95
2007-03-16 09:15:45 51°9.597 2°37.976 7.8 353 8.9 102740 95
2007-03-16 09:15:51 51°9.581 2°37.955 7.6 352 8.8 102750 95
2007-03-16 09:15:56 51°9.568 2°37.937 7.1 352 8.8 102750 95
2007-03-16 09:16:00 51°9.558 2°37.922 7.3 351 8.9 102740 96
2007-03-16 09:16:06 51°9.542 2°37.901 7.3 352 8.9 102740 96
2007-03-16 09:16:11 51°9.529 2°37.883 7 351 8.9 102740 96
2007-03-16 09:16:16 51°9.517 2°37.864 7 352 8.9 102740 96
2007-03-16 09:16:21 51°9.504 2°37.846 7.1 351 8.9 102740 96
2007-03-16 09:16:26 51°9.491 2°37.827 7.3 352 8.9 102740 96
2007-03-16 09:16:31 51°9.479 2°37.809 7.1 353 8.9 102740 96
2007-03-16 09:16:36 51°9.466 2°37.79 7.1 350 8.9 102740 96
2007-03-16 09:16:41 51°9.454 2°37.77 7.1 351 8.9 102740 96
2007-03-16 09:16:46 51°9.443 2°37.75 7.2 351 8.9 102740 96
2007-03-16 09:16:51 51°9.432 2°37.731 7 351 8.9 102740 96
2007-03-16 09:16:56 51°9.421 2°37.712 6.6 352 8.9 102740 96
2007-03-16 09:17:01 51°9.411 2°37.695 6.4 353 8.8 102740 96
2007-03-16 09:17:06 51°9.403 2°37.678 6.2 352 8.8 102740 96
2007-03-16 09:17:11 51°9.394 2°37.663 5.8 353 8.8 102740 96
2007-03-16 09:17:16 51°9.387 2°37.649 5.9 355 8.8 102740 96
2007-03-16 09:17:21 51°9.38 2°37.635 5.5 356 8.9 102740 95
2007-03-16 09:17:26 51°9.373 2°37.622 5.9 357 8.9 102740 95
2007-03-16 09:17:31 51°9.367 2°37.61 6 357 8.9 102750 96
2007-03-16 09:17:36 51°9.361 2°37.599 5.2 359 8.9 102750 96
2007-03-16 09:17:41 51°9.355 2°37.587 5.3 359 8.9 102740 96
2007-03-16 09:17:46 51°9.35 2°37.577 5.3 358 8.9 102740 96
2007-03-16 09:17:51 51°9.345 2°37.567 5.5 360 8.9 102750 96
2007-03-16 09:17:56 51°9.339 2°37.557 4.9 1 8.9 102750 96
2007-03-16 09:18:01 51°9.334 2°37.548 4.2 5 8.9 102750 96
2007-03-16 09:18:06 51°9.329 2°37.539 4.7 358 8.9 102750 96
2007-03-16 09:18:11 51°9.324 2°37.531 4.3 4 8.9 102750 96
2007-03-16 09:18:16 51°9.319 2°37.523 4.1 5 8.9 102750 96
2007-03-16 09:18:21 51°9.315 2°37.515 4.1 4 8.9 102750 96
2007-03-16 09:18:26 51°9.309 2°37.508 4.7 8 8.9 102750 96
2007-03-16 09:18:31 51°9.304 2°37.5 4.7 8 8.9 102750 96
2007-03-16 09:18:36 51°9.3 2°37.493 4.8 9 8.9 102750 96
2007-03-16 09:18:40 51°9.296 2°37.488 4.6 7 8.9 102750 96
2007-03-16 09:18:46 51°9.291 2°37.48 4.1 6 8.9 102750 96
2007-03-16 09:18:51 51°9.286 2°37.473 4.5 6 8.9 102750 96
2007-03-16 09:18:56 51°9.282 2°37.467 3.3 8 8.9 102750 96
2007-03-16 09:19:01 51°9.278 2°37.461 4.4 9 8.9 102740 96
2007-03-16 09:19:06 51°9.274 2°37.454 4.7 8 8.9 102740 96
2007-03-16 09:19:11 51°9.27 2°37.448 4.6 8 8.9 102750 96
2007-03-16 09:19:16 51°9.266 2°37.442 4.3 7 8.9 102750 96
2007-03-16 09:19:21 51°9.262 2°37.435 4 6 8.9 102750 96
2007-03-16 09:19:26 51°9.259 2°37.429 3.7 7 8.9 102750 96
2007-03-16 09:19:31 51°9.255 2°37.422 3.4 7 8.9 102750 96
2007-03-16 09:19:36 51°9.252 2°37.416 3.9 7 8.9 102750 96
2007-03-16 09:19:41 51°9.249 2°37.409 4.2 8 8.9 102750 96
2007-03-16 09:19:46 51°9.247 2°37.403 3.9 6 8.9 102750 96
2007-03-16 09:19:51 51°9.244 2°37.396 4.4 7 8.9 102750 96
2007-03-16 09:19:56 51°9.242 2°37.389 4.8 8 8.9 102750 96
2007-03-16 09:20:01 51°9.239 2°37.382 4.2 6 8.9 102750 96
2007-03-16 09:20:06 51°9.237 2°37.375 4.2 7 8.9 102750 96
2007-03-16 09:20:11 51°9.235 2°37.369 3.7 6 8.9 102750 96
2007-03-16 09:20:16 51°9.233 2°37.362 3.4 5 8.9 102750 96
2007-03-16 09:20:21 51°9.23 2°37.356 3.7 5 8.9 102750 96
2007-03-16 09:20:26 51°9.228 2°37.349 4.1 8 8.9 102750 96
2007-03-16 09:20:31 51°9.225 2°37.343 4.7 9 8.9 102750 96
2007-03-16 09:20:36 51°9.222 2°37.337 3.9 2 8.9 102750 96
2007-03-16 09:20:40 51°9.22 2°37.332 3.7 7 8.9 102750 96
2007-03-16 09:20:46 51°9.217 2°37.325 4.1 8 8.9 102750 96
2007-03-16 09:20:51 51°9.214 2°37.319 4.6 9 8.9 102750 96
2007-03-16 09:20:56 51°9.211 2°37.313 3.9 7 8.9 102750 96
2007-03-16 09:21:01 51°9.208 2°37.307 4.2 7 8.9 102750 96
2007-03-16 09:21:06 51°9.205 2°37.301 3.8 8 8.9 102750 96
2007-03-16 09:21:11 51°9.203 2°37.295 3.9 8 8.9 102750 96
2007-03-16 09:21:16 51°9.2 2°37.289 3.8 3 8.9 102750 96
2007-03-16 09:21:21 51°9.198 2°37.282 4 8 8.9 102750 96
2007-03-16 09:21:26 51°9.196 2°37.276 3.8 6 8.9 102750 96
2007-03-16 09:21:31 51°9.195 2°37.269 3.7 5 8.9 102750 96
2007-03-16 09:21:36 51°9.192 2°37.263 3.6 7 8.9 102750 96
2007-03-16 09:21:41 51°9.19 2°37.257 3.4 6 8.9 102750 96
2007-03-16 09:21:46 51°9.188 2°37.251 2.9 5 8.9 102750 96
2007-03-16 09:21:51 51°9.186 2°37.245 3.5 8 8.9 102750 96
2007-03-16 09:21:56 51°9.183 2°37.24 3.7 8 8.9 102750 96
2007-03-16 09:22:01 51°9.18 2°37.234 4.2 8 8.9 102750 96
2007-03-16 09:22:06 51°9.177 2°37.229 4.2 8 8.9 102750 96
2007-03-16 09:22:11 51°9.174 2°37.223 4.3 8 8.9 102750 96
2007-03-16 09:22:16 51°9.171 2°37.218 4.4 8 8.9 102750 96
2007-03-16 09:22:21 51°9.168 2°37.212 3.9 6 8.9 102750 96
2007-03-16 09:22:26 51°9.166 2°37.206 4 7 8.9 102750 96
2007-03-16 09:22:31 51°9.164 2°37.2 3.5 7 8.9 102750 96
2007-03-16 09:22:36 51°9.163 2°37.194 3.8 3 8.9 102750 96
2007-03-16 09:22:41 51°9.161 2°37.188 4 359 8.9 102750 96
2007-03-16 09:22:46 51°9.161 2°37.181 4.3 359 8.9 102750 96
2007-03-16 09:22:51 51°9.159 2°37.176 4.2 1 8.9 102750 96
2007-03-16 09:22:56 51°9.159 2°37.17 4.5 360 8.9 102750 96
2007-03-16 09:23:01 51°9.158 2°37.164 4.7 -999 8.9 102750 96
2007-03-16 09:23:06 51°9.157 2°37.16 4.3 2 8.9 102750 96
2007-03-16 09:23:11 51°9.157 2°37.155 3.9 2 8.9 102760 96
2007-03-16 09:23:16 51°9.156 2°37.151 4 360 8.9 102760 96
2007-03-16 09:23:21 51°9.156 2°37.147 4 1 8.9 102750 96
2007-03-16 09:23:26 51°9.156 2°37.145 3.7 358 8.9 102750 96
2007-03-16 09:23:31 51°9.157 2°37.144 3.9 359 8.9 102750 96
2007-03-16 09:23:36 51°9.157 2°37.143 3.6 358 8.9 102750 96
2007-03-16 09:23:41 51°9.158 2°37.143 3.8 356 8.9 102760 96
2007-03-16 09:23:46 51°9.158 2°37.143 4 352 8.9 102760 96
2007-03-16 09:23:51 51°9.159 2°37.143 3.9 352 8.9 102760 96
2007-03-16 09:23:56 51°9.159 2°37.144 4 356 8.9 102760 96
2007-03-16 09:24:01 51°9.16 2°37.144 4 355 8.9 102760 96
2007-03-16 09:24:06 51°9.161 2°37.145 3.6 351 8.9 102760 96
2007-03-16 09:24:11 51°9.161 2°37.145 3.6 351 8.9 102760 96
2007-03-16 09:24:16 51°9.162 2°37.146 3.7 353 8.9 102760 96
2007-03-16 09:24:21 51°9.163 2°37.147 3.5 352 8.9 102760 96
2007-03-16 09:24:26 51°9.164 2°37.148 3.4 349 8.9 102760 96
2007-03-16 09:24:31 51°9.165 2°37.148 3.3 350 8.9 102760 96
2007-03-16 09:24:36 51°9.165 2°37.149 3.4 348 8.9 102760 96
2007-03-16 09:24:41 51°9.166 2°37.15 3.6 348 8.9 102760 96
2007-03-16 09:24:46 51°9.167 2°37.151 3.6 347 8.9 102760 96
2007-03-16 09:24:51 51°9.168 2°37.152 3.9 347 8.9 102760 96
2007-03-16 09:24:56 51°9.168 2°37.153 3.9 346 8.9 102760 96
2007-03-16 09:25:01 51°9.169 2°37.155 4 347 8.9 102760 96
2007-03-16 09:25:06 51°9.17 2°37.156 4 347 8.9 102760 96
2007-03-16 09:25:11 51°9.171 2°37.157 3.7 346 8.9 102760 96
2007-03-16 09:25:16 51°9.171 2°37.158 3.6 347 8.9 102760 96
2007-03-16 09:25:21 51°9.172 2°37.16 3.7 348 8.9 102760 96
2007-03-16 09:25:26 51°9.173 2°37.161 3.8 348 8.9 102760 96
2007-03-16 09:25:31 51°9.174 2°37.162 3.6 350 8.9 102760 96
2007-03-16 09:25:36 51°9.174 2°37.164 3.5 347 8.9 102760 96
2007-03-16 09:25:41 51°9.175 2°37.165 3.4 346 8.9 102760 96
2007-03-16 09:25:46 51°9.176 2°37.166 3.4 348 8.9 102760 96
2007-03-16 09:25:51 51°9.176 2°37.168 3.5 349 8.9 102760 96
2007-03-16 09:25:56 51°9.177 2°37.169 3.6 348 8.9 102760 96
2007-03-16 09:26:01 51°9.178 2°37.171 3.5 348 8.9 102760 96
2007-03-16 09:26:06 51°9.178 2°37.173 3.2 349 8.9 102760 96
2007-03-16 09:26:11 51°9.179 2°37.174 3.4 347 8.9 102760 96
2007-03-16 09:26:16 51°9.18 2°37.176 3.3 349 8.9 102760 96
2007-03-16 09:26:21 51°9.181 2°37.178 3.4 347 8.9 102760 96
2007-03-16 09:26:26 51°9.181 2°37.179 3.5 345 8.9 102760 96
2007-03-16 09:26:31 51°9.182 2°37.181 3.7 345 8.9 102760 96
2007-03-16 09:26:36 51°9.182 2°37.182 3.4 350 8.9 102760 96
2007-03-16 09:26:41 51°9.183 2°37.184 3.4 346 8.9 102760 96
2007-03-16 09:26:46 51°9.183 2°37.186 3.7 347 8.9 102760 96
2007-03-16 09:26:51 51°9.184 2°37.187 4 350 8.9 102760 96
2007-03-16 09:26:56 51°9.185 2°37.189 3.6 349 8.9 102760 96
2007-03-16 09:27:01 51°9.185 2°37.191 3.8 349 8.9 102760 96
2007-03-16 09:27:06 51°9.186 2°37.193 3.8 350 8.9 102760 96
2007-03-16 09:27:11 51°9.187 2°37.195 3.7 350 8.9 102760 96
2007-03-16 09:27:16 51°9.187 2°37.197 3.2 354 8.9 102760 96
2007-03-16 09:27:20 51°9.188 2°37.198 3.4 352 8.9 102760 96
2007-03-16 09:27:26 51°9.188 2°37.2 3.5 354 8.9 102760 96
2007-03-16 09:27:31 51°9.189 2°37.202 3.2 354 8.9 102760 96
2007-03-16 09:27:36 51°9.189 2°37.203 3.4 356 8.9 102760 96
2007-03-16 09:27:40 51°9.189 2°37.205 2.2 354 8.9 102760 96
2007-03-16 09:27:46 51°9.19 2°37.207 3.4 355 8.9 102760 96
2007-03-16 09:27:51 51°9.191 2°37.209 3.5 354 8.9 102760 96
2007-03-16 09:27:56 51°9.191 2°37.211 2.9 352 8.9 102760 96
2007-03-16 09:28:01 51°9.192 2°37.213 3.4 353 8.9 102760 96
2007-03-16 09:28:06 51°9.192 2°37.215 3.3 353 8.9 102760 96
2007-03-16 09:28:11 51°9.193 2°37.217 3.2 354 8.9 102760 95
2007-03-16 09:28:16 51°9.193 2°37.219 3 353 8.9 102760 95
2007-03-16 09:28:21 51°9.194 2°37.221 2.8 352 8.9 102760 95
2007-03-16 09:28:26 51°9.194 2°37.223 3 354 8.9 102760 95
2007-03-16 09:28:31 51°9.195 2°37.225 3.3 354 8.9 102760 95
2007-03-16 09:28:36 51°9.195 2°37.227 3.1 354 8.9 102760 95
2007-03-16 09:28:41 51°9.195 2°37.229 3.3 353 8.8 102760 95
2007-03-16 09:28:46 51°9.196 2°37.231 3.4 353 8.8 102760 95
2007-03-16 09:28:51 51°9.197 2°37.233 3.3 353 8.9 102760 96
2007-03-16 09:28:56 51°9.197 2°37.235 3 355 8.9 102760 96
2007-03-16 09:29:01 51°9.198 2°37.238 3.1 354 8.9 102760 96
2007-03-16 09:29:06 51°9.198 2°37.239 3 352 8.9 102760 96
2007-03-16 09:29:11 51°9.198 2°37.242 3 351 8.9 102760 96
2007-03-16 09:29:16 51°9.199 2°37.244 3 352 8.9 102760 96
2007-03-16 09:29:21 51°9.199 2°37.246 3 351 8.9 102760 96
2007-03-16 09:29:26 51°9.2 2°37.248 2.9 352 8.9 102760 96
2007-03-16 09:29:31 51°9.2 2°37.25 2.7 352 8.9 102760 96
2007-03-16 09:29:36 51°9.201 2°37.253 2.8 352 8.9 102760 96
2007-03-16 09:29:41 51°9.201 2°37.254 2.7 351 8.9 102760 96
2007-03-16 09:29:46 51°9.201 2°37.257 2.5 354 8.9 102760 96
2007-03-16 09:29:51 51°9.201 2°37.259 2.4 353 8.9 102760 95
2007-03-16 09:29:56 51°9.202 2°37.261 2.4 353 8.9 102760 95
2007-03-16 09:30:01 51°9.202 2°37.263 2.4 352 8.9 102760 95
2007-03-16 09:30:06 51°9.202 2°37.265 2.3 354 8.9 102760 95
2007-03-16 09:30:11 51°9.203 2°37.267 2.4 355 8.9 102760 95
2007-03-16 09:30:16 51°9.203 2°37.269 2.3 355 8.9 102760 95
2007-03-16 09:30:20 51°9.204 2°37.271 2.6 356 8.9 102760 95
2007-03-16 09:30:26 51°9.204 2°37.274 2.4 355 8.9 102760 95
2007-03-16 09:30:31 51°9.205 2°37.277 2.4 355 8.9 102760 95
2007-03-16 09:30:36 51°9.205 2°37.279 2.4 356 8.9 102760 95
2007-03-16 09:30:41 51°9.206 2°37.281 2.3 356 8.9 102760 95
2007-03-16 09:30:46 51°9.206 2°37.283 2.3 355 8.9 102760 95
2007-03-16 09:30:51 51°9.207 2°37.286 2.2 357 8.9 102760 95
2007-03-16 09:30:56 51°9.207 2°37.288 2.6 354 8.9 102760 95
2007-03-16 09:31:01 51°9.207 2°37.29 2.5 355 8.8 102760 95